This is the latest recevied weather packets stored in our database for station/object EA1BQO-1. If no packets are shown the sender has not sent any weather packets the latest 10 day(s).
| Time | Temp. | Humidity | Pressure | Rain* | Wind** | Luminosity | Snow |
|---|---|---|---|---|---|---|---|
| 1777647235 | 23.33° C | 29% | 1012.9 hPa | 0 mm | - | - | - |
| 1777646635 | 23.33° C | 25% | 1013.2 hPa | 0 mm | - | - | - |
| 1777646035 | 22.78° C | 30% | 1013.4 hPa | 0 mm | - | - | - |
| 1777645435 | 22.22° C | 30% | 1013.4 hPa | 0 mm | - | - | - |
| 1777644835 | 22.78° C | 29% | 1013.2 hPa | 0 mm | - | - | - |
| 1777644235 | 22.78° C | 30% | 1013.6 hPa | 0 mm | - | - | - |
| 1777643635 | 22.22° C | 30% | 1013.7 hPa | 0 mm | - | - | - |
| 1777643035 | 21.67° C | 31% | 1013.7 hPa | 0 mm | - | - | - |
| 1777642435 | 22.22° C | 31% | 1013.8 hPa | 0 mm | - | - | - |
| 1777641835 | 21.67° C | 35% | 1013.9 hPa | 0 mm | - | - | - |
| 1777641235 | 21.67° C | 33% | 1013.9 hPa | 0 mm | - | - | - |
| 1777640635 | 21.67° C | 32% | 1014 hPa | 0 mm | - | - | - |
| 1777640035 | 21.67° C | 32% | 1014 hPa | 0 mm | - | - | - |
| 1777639435 | 21.67° C | 33% | 1014.1 hPa | 0 mm | - | - | - |
| 1777638835 | 21.11° C | 37% | 1014.1 hPa | 0 mm | - | - | - |
| 1777638235 | 20.56° C | 36% | 1014.3 hPa | 0 mm | - | - | - |
| 1777637635 | 20.56° C | 36% | 1014.2 hPa | 0 mm | - | - | - |
| 1777637035 | 20.56° C | 41% | 1014.3 hPa | 0 mm | - | - | - |
| 1777636435 | 20.56° C | 36% | 1014.2 hPa | 0 mm | - | - | - |
| 1777635835 | 20.56° C | 38% | 1014.3 hPa | 0 mm | - | - | - |
| 1777635235 | 20° C | 41% | 1014.5 hPa | 0 mm | - | - | - |
| 1777634635 | 20.56° C | 47% | 1014.5 hPa | 0 mm | - | - | - |
| 1777634035 | 20° C | 47% | 1014.4 hPa | 0 mm | - | - | - |
| 1777633435 | 20° C | 56% | 1014.6 hPa | 0 mm | - | - | - |
| 1777632835 | 19.44° C | 60% | 1014.6 hPa | 0 mm | - | - | - |
* Rain latest hour (hover to see other rain measurements)
** Current wind speed in m/s (hover to see current wind gust speed)